Lid_Strength_Index
-1 0 -1 2 8 7 9 8 5 7 7 4 4 5 6 5 7 11 1 0 -0 -0 -1 -1 -1 -1 -1 -1 -1 -1 -1 -1 -1 -1 -1 -1 -1 -1 -1 -1 -1 -1 -1 -1 -1 -1 -1 -1 -1
0 1 1 4 9 10 9 7 7 6 5 4 4 5 6 7 4 3 2 0 -0 -0 -1 -1 -1 -1 -2 -1 -1 -1 -1 -1 -1 -1 -1 -1 -1 -1 -1 -1 -1 -1 -1 -1 -1 -1 -1 -1 -1
1 1 4 7 8 10 9 7 6 5 5 5 6 4 5 6 3 3 1 -0 -0 -0 -1 -1 -1 -1 -1 -1 -1 -1 -1 -1 -1 -1 -1 -1 -1 -1 -1 -1 -1 -1 -1 -1 -1 -1 -1 -1 -1
1 2 4 8 9 9 8 6 5 6 5 4 5 6 4 2 3 1 0 -0 -0 -0 -1 -1 -1 -1 -1 -1 -1 -1 -1 -1 -1 -1 -1 -1 -1 -1 -1 -1 -1 -1 -1 -1 -1 -1 -1 -1 -1
2 3 7 8 8 7 6 6 5 6 6 5 5 6 6 3 1 1 0 0 0 -0 -1 -1 -1 -1 -1 -1 -1 -1 -1 -1 -1 -1 -1 -1 -1 -1 -1 -1 -1 -1 -1 -1 -1 -1 -1 -1 -1
5 5 9 10 8 7 6 5 5 5 5 5 6 5 5 2 2 1 0 0 -0 0 -1 -1 -1 -1 -1 -1 -1 -1 -1 -1 -1 -1 -1 -1 -1 -1 -1 -1 -1 -1 -1 -1 -1 -1 -1 -1 -1
5 6 9 9 9 8 8 6 5 5 5 5 4 6 4 3 1 1 0 -0 -0 -0 -0 -1 -1 -1 -1 -1 -1 -1 -1 -1 -1 -1 -1 -1 -1 -1 -1 -1 -1 -1 -1 -1 -1 -1 -1 -1 -1
4 6 8 8 9 9 6 6 5 4 5 3 3 6 5 3 1 1 0 0 0 -0 -0 -0 -1 -1 -1 -1 -1 -1 -1 -1 -1 -1 -1 -1 -1 -1 -1 -1 -1 -1 -1 -1 -1 -1 -1 -1 -1
3 7 8 8 8 7 5 6 5 4 5 4 3 3 3 1 1 1 2 1 1 1 0 -0 -0 -0 -1 -1 -1 -1 -1 -1 -1 -1 -1 -1 -1 -1 -1 -1 -2 -1 -1 -1 -1 -1 -1 -1 -1
6 8 7 6 6 7 6 6 5 5 5 4 4 3 2 2 2 2 3 2 2 2 1 -0 -0 -0 -1 -1 -1 -1 -1 -1 -1 -1 -1 -1 -1 -1 -1 -1 -2 -1 -1 -1 -1 -1 -1 -2 -1
6 8 6 6 6 5 5 6 5 5 6 4 4 3 2 2 2 2 2 2 2 1 1 0 -0 -0 -0 -0 -1 -1 -2 -2 -1 -1 -1 -1 -1 -1 -1 -1 -1 -1 -1 -1 -1 -1 -1 -1 -1
8 6 7 6 6 6 6 5 5 5 5 3 3 3 3 3 3 2 2 2 2 1 1 0 -0 -0 -0 -1 -0 -1 -0 -1 -1 -1 -1 -1 -1 -1 -1 -0 -0 -1 -1 -1 -1 -1 -1 -1 -1
8 7 7 6 6 6 5 6 6 5 3 3 2 3 3 3 2 2 2 1 1 1 1 0 -0 -0 -0 -0 -0 -0 -0 -0 -1 -1 -1 -1 -1 -0 -1 -1 -1 -1 -1 -1 -1 -1 -1 -0 -0
7 7 7 6 6 6 7 6 6 5 4 4 3 3 3 3 2 2 2 2 1 1 1 0 0 -0 -1 -0 -1 -0 -1 -1 -1 -1 -1 -1 -1 -0 -0 -0 -0 -1 -2 -1 -1 -1 -0 -0 -0
7 9 8 7 7 7 6 8 7 5 4 4 4 4 3 3 3 2 2 2 1 1 0 0 0 -0 -0 -0 -0 -0 -1 -1 -0 -1 -1 -1 -1 -1 -0 0 -0 -0 -2 -1 -1 -1 -1 -0 -0
9 9 10 7 7 7 8 10 6 5 5 5 4 4 3 3 3 2 1 1 1 1 1 0 0 -0 -0 -0 -0 -0 -0 -1 -0 -1 -1 -1 -1 -1 -0 -0 -0 -1 -1 -1 -0 0 0 0 0
9 12 11 9 7 8 8 9 6 5 5 5 4 4 4 3 3 2 1 1 1 1 1 1 0 0 0 -0 -0 -0 -0 -0 -1 -1 -1 -1 -1 -1 -0 -0 -1 -1 -0 -0 0 0 0 1 1
11 11 10 10 9 9 9 9 6 5 5 5 5 4 4 4 3 2 2 1 1 1 0 0 0 0 -0 -0 0 0 -0 -0 -1 -0 -0 -1 -1 -1 -1 -0 -0 -1 -0 1 0 1 1 1 1
9 10 11 10 8 9 9 9 8 6 6 6 5 5 4 3 2 2 2 1 1 1 1 1 1 0 0 1 1 1 1 1 0 -0 -1 -1 -1 -1 -1 -0 -0 -0 0 1 0 1 2 2 1
10 11 11 10 8 9 9 10 8 7 6 6 5 5 4 4 3 2 2 1 1 1 1 1 1 0 0 0 0 0 0 0 0 -0 -0 -1 -1 -1 -0 -0 0 -0 0 0 1 1 2 2 1
10 11 11 11 9 9 10 11 9 7 6 5 5 4 4 4 3 3 2 2 2 2 1 1 1 0 0 0 0 0 0 0 1 1 0 -0 -1 -1 -1 -0 -0 -0 -0 1 1 1 2 3 2
11 9 9 10 11 13 9 14 10 8 8 6 5 4 4 4 4 3 3 2 2 2 1 1 1 1 0 0 1 1 2 2 1 1 0 -0 -1 -0 -1 -0 -0 -0 -0 0 1 0 1 1 3
9 7 9 9 10 10 11 12 11 8 9 8 6 5 4 4 4 4 3 2 2 1 1 1 1 1 0 0 0 1 1 1 0 0 0 0 -0 -1 -0 -0 -0 -0 -0 -0 0 0 1 1 2
7 8 9 9 10 15 11 12 12 10 9 8 6 5 5 4 4 4 2 2 2 1 1 1 1 1 1 0 0 1 1 1 1 1 1 1 0 0 -0 -0 -0 -0 -0 0 0 0 0 1 1
8 10 15 16 16 17 10 12 11 7 7 8 7 6 5 4 4 4 4 3 3 2 2 2 2 2 1 1 1 1 1 1 1 1 1 1 1 1 1 -0 -0 0 -0 -0 0 0 1 1 1
9 10 15 20 17 15 11 15 11 6 6 6 6 6 5 5 4 4 4 3 3 3 2 2 2 2 1 1 1 1 1 1 1 1 1 1 1 1 0 0 0 -0 -0 -0 -0 0 0 0 1
10 12 9 13 12 15 13 10 8 6 6 7 6 6 6 5 5 4 4 3 3 3 2 2 2 2 1 1 1 1 1 1 1 1 1 1 0 0 0 -0 0 0 0 -0 -0 1 1 1 1
8 7 14 14 21 20 14 12 12 9 8 7 7 7 6 6 5 4 4 3 3 2 3 2 2 2 1 1 1 1 1 1 0 0 1 1 0 0 0 0 0 0 0 -0 0 1 0 1 1
9 11 10 12 14 16 16 13 8 8 8 8 7 7 6 6 5 4 4 3 3 2 2 2 2 2 2 1 1 1 2 1 0 1 0 0 0 1 2 1 1 1 1 0 0 1 1 1 1
8 12 13 18 16 14 13 12 7 7 8 7 7 7 6 5 5 4 4 3 3 3 3 2 2 2 1 1 1 1 1 1 1 1 1 1 2 2 2 1 1 1 1 0 1 1 2 2 3